Skip Page Navigation
NASA JPL Caltech
NASA Logo - Jet Propulsion Laboratory + View the NASA Portal
+ Near-Earth Object (NEO) Program
Search JPL
JPL Home Earth Solar System Stars & Galaxies Technology
JPL Solar System Dynamics
BODIES ORBITS EPHEMERIDES TOOLS PHYSICAL DATA DISCOVERY FAQ SITE MAP
JPL Small-Body Database Browser
Search: [ help ]  
207P/NEAT (2001 J1)
Classification: Jupiter-family Comet [NEO]          SPK-ID: 1000339
Ephemeris | Orbit Diagram | Orbital Elements | Physical Parameters | Close-Approach Data ]

[ hide orbit diagram ]
Orbit Diagram
Note: Make sure you have Java enabled on your browser to see the applet. This applet is provided as a 3D orbit visualization tool. The applet was implemented using 2-body methods, and hence should not be used for determining accurate long-term trajectories (over several years or decades) or planetary encounter circumstances. For accurate long-term ephemerides, please instead use our Horizons system.
Orbit Viewer

Additional Notes: the orbits shown in the applet are color coded. The planets are white lines, and the asteroid/comet is a blue line. The bright white line indicates the portion of the orbit that is above the ecliptic plane, and the darker portion is below the ecliptic plane. Likewise for the asteroid/comet orbit, the light blue indicates the portion above the ecliptic plane, and the dark blue the portion below the ecliptic plane.

Orbit Viewer applet originally written and kindly provided by Osamu Ajiki (AstroArts), and further modified by Ron Baalke (JPL).


Orbital Elements at Epoch 2454069.5 (2006-Nov-30.0) TDB
Reference: JPL 63 (heliocentric ecliptic J2000)
 Element Value Uncertainty (1-sigma)   Units 
e .7569889457564519 2.5104e-07  
a 3.884580634124115 7.5417e-08 AU
q .9439960351925716 9.6971e-07 AU
i 10.14994151348466 3.7765e-05 deg
node 200.6741867056804 0.00013322 deg
peri 271.1956478552888 0.00014196 deg
M 268.9376592406666 8.5533e-06 deg
tp 2454776.877019592736
(2008-Nov-06.37701959)
8.0062e-05 JED
period 2796.498804334592
7.66
8.1438e-05
2.23e-07
d
yr
n .1287323990419726 3.7489e-09 deg/d
Q 6.825165233055658 1.3251e-07 AU
  Orbit Determination Parameters
   # obs. used (total)      137  
   data-arc span      3149 days (8.62 yr)  
   first obs. used      2000-10-07  
   last obs. used      2009-05-22  
   planetary ephem.      DE405  
   SB-pert. ephem.      SB405-CPV-2  
   condition code      0  
   fit RMS      .77458  
   data source      ORB  
   producer      Otto Matic  
   solution date      2011-Sep-14 21:12:54  

Additional Information
 Earth MOID = .147584 AU 
 T_jup = 2.451 
[ show covariance matrix ]

Ephemeris | Orbit Diagram | Orbital Elements | Physical Parameters | Close-Approach Data ]

Physical Parameter Table
Parameter Symbol Value Units Sigma Reference Notes
comet total magnitude M1 16.5 mag 0.8 63 2 parameter fit from 51 observations, autocmod 2.5a
comet total magnitude slope K1 10.   n/a 63 autocmod 2.5a
comet nuclear magnitude M2 18.3 mag 0.6 63 from 19 observations, autocmod 2.5a
comet nuclear magnitude slope K2 5.   n/a 63 autocmod 2.5a
comet nuclear phase coefficient PC 0.03   n/a 63 autocmod 2.5a

[ show close-approach data ]
Alternate Designations
 Perihelion 
Year
(est.)
 New-Style 
Desig
Roman
 Numeral 
Year/
 Letter 
 2008.8   207P/2008 T5       
 2001.2   207P/2001 J1       
Ephemeris | Orbit Diagram | Orbital Elements | Physical Parameters | Close-Approach Data ]
ABOUT SSD CREDITS/AWARDS PRIVACY/COPYRIGHT GLOSSARY LINKS
FirstGov 2013-May-22 15:01 UT
(server date/time)  
NASA Home Page
Site Manager:   Donald K. Yeomans
Webmaster  Alan B. Chamberlin